This is the latest recevied weather packets stored in our database for station/object KC5DAQ-22. If no packets are shown the sender has not sent any weather packets the latest 1 day(s).
| Time | Temp. | Humidity | Pressure | Rain* | Wind** | Luminosity | Snow |
|---|---|---|---|---|---|---|---|
| 1778020182 | 28.33° C | 78% | 1004.9 hPa | 0 mm | - | 211 W/m² | - |
| 1778020120 | 28.33° C | 77% | 1004.9 hPa | 0 mm | - | 211 W/m² | - |
| 1778020059 | 28.33° C | 78% | 1004.9 hPa | 0 mm | - | 204 W/m² | - |
| 1778019936 | 28.33° C | 77% | 1004.9 hPa | 0 mm | - | 206 W/m² | - |
| 1778019572 | 28.33° C | 77% | 1004.9 hPa | 0 mm | - | 213 W/m² | - |
| 1778019090 | 28.33° C | 76% | 1005 hPa | 0 mm | - | 229 W/m² | - |
| 1778019028 | 28.33° C | 77% | 1005 hPa | 0 mm | - | 230 W/m² | - |
| 1778018967 | 28.33° C | 77% | 1005.1 hPa | 0 mm | - | 220 W/m² | - |
| 1778018906 | 28.33° C | 77% | 1005 hPa | 0 mm | - | 195 W/m² | - |
| 1778018784 | 28.33° C | 77% | 1005 hPa | 0 mm | - | 181 W/m² | - |
| 1778018659 | 28.89° C | 76% | 1005 hPa | 0 mm | - | 167 W/m² | - |
| 1778018236 | 28.89° C | 76% | 1005 hPa | 0 mm | - | 237 W/m² | - |
| 1778018177 | 28.89° C | 77% | 1005.1 hPa | 0 mm | - | 266 W/m² | - |
| 1778017876 | 28.89° C | 77% | 1005.1 hPa | 0 mm | - | 251 W/m² | - |
| 1778017272 | 28.89° C | 77% | 1005.3 hPa | 0 mm | - | 267 W/m² | - |
| 1778017022 | 29.44° C | 76% | 1005.3 hPa | 0 mm | - | 157 W/m² | - |
| 1778016603 | 29.44° C | 75% | 1005.2 hPa | 0 mm | - | 334 W/m² | - |
| 1778016544 | 29.44° C | 76% | 1005.3 hPa | 0 mm | - | 329 W/m² | - |
| 1778015945 | 28.89° C | 76% | 1005.6 hPa | 0 mm | - | 466 W/m² | - |
| 1778015822 | 28.89° C | 76% | 1005.5 hPa | 0 mm | - | 336 W/m² | - |
| 1778015405 | 28.89° C | 77% | 1005.6 hPa | 0 mm | - | 290 W/m² | - |
| 1778014657 | 28.33° C | 77% | 1005.8 hPa | 0 mm | - | 162 W/m² | - |
| 1778014595 | 28.89° C | 77% | 1005.9 hPa | 0 mm | - | 142 W/m² | - |
| 1778014411 | 28.89° C | 76% | 1005.8 hPa | 0 mm | - | 111 W/m² | - |
| 1778013867 | 29.44° C | 75% | 1005.9 hPa | 0 mm | - | 222 W/m² | - |
* Rain latest hour (hover to see other rain measurements)
** Current wind speed in m/s (hover to see current wind gust speed)